TimeCDT,TemperatureF,Dew PointF,Humidity,Sea Level PressureIn,VisibilityMPH,Wind Direction,Wind SpeedMPH,Gust SpeedMPH,PrecipitationIn,Events,Conditions,WindDirDegrees,DateUTC
12:54 AM,46.0,37.9,73,30.04,10.0,ESE,5.8,-,N/A,,Clear,110,2012-03-16 05:54:00
1:54 AM,46.0,36.0,68,30.04,10.0,ESE,5.8,-,N/A,,Clear,120,2012-03-16 06:54:00
2:54 AM,46.0,34.0,63,30.04,10.0,ESE,3.5,-,N/A,,Clear,120,2012-03-16 07:54:00
3:54 AM,43.0,33.1,68,30.03,10.0,Calm,Calm,-,N/A,,Clear,0,2012-03-16 08:54:00
4:54 AM,41.0,32.0,70,30.05,10.0,Calm,Calm,-,N/A,,Clear,0,2012-03-16 09:54:00
5:54 AM,41.0,32.0,70,30.06,10.0,ESE,4.6,-,N/A,,Clear,110,2012-03-16 10:54:00
6:54 AM,39.0,30.0,70,30.06,10.0,ESE,3.5,-,N/A,,Clear,110,2012-03-16 11:54:00
7:54 AM,39.9,30.9,70,30.07,10.0,ESE,4.6,-,N/A,,Clear,110,2012-03-16 12:54:00
8:54 AM,44.1,30.9,60,30.07,10.0,East,4.6,-,N/A,,Clear,100,2012-03-16 13:54:00
9:54 AM,50.0,30.9,48,30.07,10.0,East,5.8,-,N/A,,Clear,90,2012-03-16 14:54:00
10:07 AM,51.8,30.2,44,30.04,10.0,ESE,8.1,-,N/A,,Partly Cloudy,110,2012-03-16 15:07:00
10:54 AM,57.9,37.9,47,30.06,10.0,SE,9.2,-,N/A,,Clear,140,2012-03-16 15:54:00
12:54 PM,66.9,45.0,45,30.00,10.0,SSE,12.7,-,N/A,,Clear,150,2012-03-16 17:54:00
1:54 PM,70.0,48.0,46,29.98,10.0,SSE,13.8,19.6,N/A,,Clear,150,2012-03-16 18:54:00
2:54 PM,71.1,48.9,45,29.96,10.0,SSE,13.8,-,N/A,,Clear,150,2012-03-16 19:54:00
3:54 PM,71.1,48.9,45,29.95,10.0,SSE,8.1,19.6,N/A,,Scattered Clouds,160,2012-03-16 20:54:00
4:54 PM,71.1,48.9,45,29.94,10.0,SE,13.8,-,N/A,,Clear,140,2012-03-16 21:54:00
5:54 PM,70.0,51.1,51,29.94,10.0,SE,10.4,-,N/A,,Clear,140,2012-03-16 22:54:00
6:54 PM,66.9,51.1,57,29.94,10.0,ESE,9.2,-,N/A,,Partly Cloudy,120,2012-03-16 23:54:00
7:54 PM,64.0,51.1,63,29.95,10.0,ESE,8.1,-,N/A,,Clear,110,2012-03-17 00:54:00
8:54 PM,62.1,51.1,67,29.96,10.0,East,4.6,-,N/A,,Clear,100,2012-03-17 01:54:00
9:54 PM,61.0,53.1,75,29.96,9.0,ESE,5.8,-,N/A,,Clear,110,2012-03-17 02:54:00
10:54 PM,57.9,52.0,81,29.95,8.0,East,4.6,-,N/A,,Clear,90,2012-03-17 03:54:00
11:54 PM,55.9,52.0,87,29.95,7.0,East,4.6,-,N/A,,Clear,80,2012-03-17 04:54:00